Location: Catstown
(52.4386°N, 7.2633°W)
Time: 11:16:14
(UTC+00:00)

Cosmos 1833 Rocket - Pass Details

Date: 18 January 2021
Orbit: 833 x 839 km, 71.0° (Epoch: 24 February)

Event Time Altitude Azimuth Distance (km) Brightness Sun altitude
Rises 18:17:51 0° 327° (NNW) 3,393 6.1 -12.8°
Reaches altitude 10° 18:21:02 10° 344° (NNW) 2,456 5.1 -13.3°
Maximum altitude 18:25:01 19° 30° (NNE) 1,881 4.1 -13.9°
Enters shadow 18:26:33 18° 50° (NE) 1,975 4.1 -14.1°
